, AK

(GMT )
Kotzebue

Weather History for PAOT - April, 2013

Change the Weather History Date:

Monday, April 1, 2013

  Actual Average Record
Temperature  
Mean Temperature 5 °F 4 °F  
Max Temperature 16 °F 13 °F 37 °F (1962)
Min Temperature -6 °F -4 °F -28 °F (1992)
Degree Days  
Heating Degree Days 60 61  
Month to date heating degree days 60 61  
Since 1 July heating degree days 12304 12288  
Cooling Degree Days 0 0  
Month to date cooling degree days 0 0  
Year to date cooling degree days 0 0  
Moisture  
Dew Point 0 °F    
Average Humidity 0    
Maximum Humidity 0    
Minimum Humidity 0    
Precipitation  
Precipitation T in 0.01 in 0.12 in (2008)
Month to date precipitation T 0.01  
Year to date precipitation 2.43 1.73  
Snow  
Snow T in 0.20 in 2.70 in (1967)
Month to date snowfall T 0.2  
Since 1 July snowfall 28.0 53.7  
Snow Depth 6.00 in    
Sea Level Pressure  
Sea Level Pressure 30.23 in    
Wind  
Wind Speed 2 mph (NE)    
Max Wind Speed 7 mph    
Max Gust Speed 10 mph    
Visibility 10 miles    
Events      
T = Trace of Precipitation, MM = Missing Value Source: NWS Daily Summary

Daily Weather History Graph

Daily Weather History Graph

Search for Another Location

Airport or City:

Trip Planner

Search our weather history database for the weather conditions in past years. The results will help you decide how hot, cold, wet, or windy it might be!

Date:

Astronomy

Apr. 01, 2013 Rise Set
Actual Time 8:00 AM AKDT 9:50 PM AKDT
Civil Twilight 7:04 AM AKDT 10:46 PM AKDT
Nautical Twilight 5:48 AM AKDT 12:04 AM AKDT
Astronomical Twilight 3:37 AM AKDT 2:40 AM AKDT
Moon 5:31 AM AKDT (4/1) 9:37 AM AKDT (4/1)
Length of Visible Light 15h 42m
Length of Day
13h 49m
Waning Gibbous, 65% of the Moon is Illuminated
Apr 1
Waning Gibbous
Apr 2
Last Quarter
Apr 10
New
Apr 18
First Quarter
Apr 25
Full

Hourly Weather History & Observations

Time (AKDT) Temp. Windchill Dew Point Humidity Pressure Visibility Wind Dir Wind Speed Gust Speed Precip Events Conditions
12:53 AM -4.0 °F - -8.0 °F 83% 30.27 in 10.0 mi Calm Calm - N/A   Clear
1:13 AM -5.8 °F - -7.6 °F 92% 30.26 in 10.0 mi Calm Calm - N/A   Mostly Cloudy
1:53 AM -2.9 °F - -7.1 °F 82% 30.27 in 10.0 mi Calm Calm - N/A   Overcast
2:53 AM -2.0 °F - -5.1 °F 87% 30.26 in 10.0 mi Calm Calm - N/A   Overcast
3:06 AM -2.2 °F -10.4 °F -5.8 °F 85% 30.26 in 10.0 mi SSW 3.5 mph - N/A   Overcast
3:53 AM -0.0 °F -7.9 °F -2.9 °F 88% 30.26 in 10.0 mi WSW 3.5 mph - N/A   Overcast
4:37 AM 1.4 °F - -2.2 °F 85% 30.26 in 10.0 mi Calm Calm - N/A   Overcast
4:53 AM 1.9 °F - -2.9 °F 80% 30.26 in 10.0 mi Calm Calm - N/A   Overcast
5:37 AM 1.4 °F -6.2 °F -2.2 °F 85% 30.25 in 10.0 mi NNW 3.5 mph - N/A   Overcast
5:53 AM 3.0 °F - -0.9 °F 84% 30.25 in 10.0 mi Calm Calm - N/A   Overcast
6:53 AM 5.0 °F -4.1 °F 1.0 °F 84% 30.24 in 10.0 mi North 4.6 mph - N/A   Overcast
7:53 AM 6.1 °F -0.9 °F 1.9 °F 83% 30.23 in 10.0 mi NE 3.5 mph - N/A   Overcast
8:53 AM 3.9 °F -3.4 °F -0.0 °F 84% 30.24 in 10.0 mi ESE 3.5 mph - 0.00 in   Mostly Cloudy
9:02 AM 1.4 °F -6.2 °F -2.2 °F 85% 30.24 in 10.0 mi ENE 3.5 mph - N/A   Mostly Cloudy
9:53 AM 3.0 °F - -0.9 °F 84% 30.23 in 10.0 mi Calm Calm - N/A   Partly Cloudy
10:53 AM 1.9 °F -7.6 °F -2.9 °F 80% 30.24 in 10.0 mi ENE 4.6 mph - N/A   Scattered Clouds
11:53 AM 3.9 °F -5.3 °F -0.9 °F 80% 30.24 in 10.0 mi ENE 4.6 mph - N/A   Scattered Clouds
12:53 PM 6.1 °F -0.9 °F 1.0 °F 80% 30.23 in 10.0 mi ENE 3.5 mph - N/A   Scattered Clouds
1:53 PM 6.1 °F - 1.0 °F 80% 30.23 in 10.0 mi Calm Calm - N/A   Scattered Clouds
2:53 PM 8.1 °F - 3.0 °F 80% 30.23 in 10.0 mi Calm Calm - N/A   Scattered Clouds
3:53 PM 9.0 °F - 5.0 °F 84% 30.22 in 10.0 mi Calm Calm - N/A   Mostly Cloudy
4:53 PM 10.9 °F 4.7 °F 3.9 °F 73% 30.22 in 10.0 mi NW 3.5 mph - N/A   Partly Cloudy
5:53 PM 10.0 °F 1.8 °F 3.0 °F 73% 30.22 in 10.0 mi North 4.6 mph - N/A   Clear
6:53 PM 9.0 °F - 3.0 °F 77% 30.21 in 10.0 mi Calm Calm - N/A   Partly Cloudy
7:53 PM 12.0 °F - 5.0 °F 73% 30.20 in 10.0 mi Calm Calm - N/A   Clear
8:53 PM 10.9 °F - 5.0 °F 77% 30.19 in 10.0 mi Calm Calm - N/A   Clear
9:53 PM 9.0 °F - 6.1 °F 88% 30.20 in 10.0 mi Calm Calm - N/A   Clear
10:53 PM 12.9 °F 6.9 °F 7.0 °F 77% 30.20 in 10.0 mi East 3.5 mph - N/A   Overcast
11:53 PM 14.0 °F 8.2 °F 8.1 °F 77% 30.20 in 10.0 mi East 3.5 mph - N/A   Overcast